Weather History for Altus AFB, OK

Change the Weather History Date:

Tuesday, March 4, 2014

  Actual Average Record
Temperature  
Mean Temperature 35 °F -  
Max Temperature 54 °F 58 °F 84 °F (2009)
Min Temperature 16 °F 32 °F 10 °F (2002)
Degree Days  
Heating Degree Days 30    
Moisture  
Dew Point 22 °F    
Average Humidity 64    
Maximum Humidity 98    
Minimum Humidity 33    
Precipitation  
Precipitation 0.00 in - - ()
Sea Level Pressure  
Sea Level Pressure 30.09 in    
Wind  
Wind Speed 8 mph (SE)    
Max Wind Speed 16 mph    
Max Gust Speed 22 mph    
Visibility 10 miles    
Events      
Averages and records for this station are not official NWS values.
T = Trace of Precipitation, MM = Missing Value Source: NWS Daily Summary

Daily Weather History Graph

Daily Weather History Graph

Search for Another Location

Airport:

Trip Planner

Search our weather history database for the weather conditions in past years. The results will help you decide how hot, cold, wet, or windy it might be!

Date:

Astronomy

Mar. 04, 2014 Rise Set
Actual Time 7:02 AM CST 6:35 PM CST
Civil Twilight 6:37 AM CST 7:00 PM CST
Nautical Twilight 6:07 AM CST 7:30 PM CST
Astronomical Twilight 5:38 AM CST 7:59 PM CST
Moon 8:59 AM CST (3/4) 10:33 PM CST (3/4)
Length of Visible Light 12h 23m
Length of Day
11h 33m
Waxing Crescent, 15% of the Moon is Illuminated
Mar 4
Waxing Crescent
Mar 8
First Quarter
Mar 16
Full
Mar 23
Last Quarter
Mar 30
New

Hourly Weather History & Observations

Time (CST) Temp. Windchill Dew Point Humidity Pressure Visibility Wind Dir Wind Speed Gust Speed Precip Events Conditions
12:58 AM 21.2 °F 13.6 °F 17.6 °F 86% 30.27 in 10.0 mi SSE 5.8 mph - N/A   Clear
1:58 AM 20.1 °F 15.2 °F 17.6 °F 90% 30.26 in 10.0 mi ESE 3.5 mph - N/A   Clear
2:58 AM 19.2 °F 12.5 °F 17.8 °F 94% 30.24 in 10.0 mi SE 4.6 mph - N/A   Clear
3:58 AM 19.8 °F - 18.0 °F 93% 30.21 in 10.0 mi ESE 2.3 mph - N/A   Partly Cloudy
4:58 AM 18.5 °F - 17.6 °F 96% 30.20 in 10.0 mi SE 2.3 mph - N/A   Clear
5:58 AM 16.9 °F - 16.5 °F 98% 30.20 in 10.0 mi East 1.2 mph - N/A   Clear
6:58 AM 17.6 °F 8.2 °F 16.9 °F 97% 30.21 in 10.0 mi SE 6.9 mph - N/A   Clear
7:58 AM 20.3 °F 12.5 °F 19.4 °F 96% 30.21 in 10.0 mi SSE 5.8 mph - N/A   Clear
8:58 AM 26.8 °F 15.9 °F 19.6 °F 74% 30.19 in 10.0 mi South 12.7 mph - N/A   Clear
9:58 AM 32.9 °F 23.7 °F 19.4 °F 58% 30.17 in 10.0 mi South 12.7 mph - N/A   Clear
10:58 AM 38.7 °F 30.9 °F 19.8 °F 47% 30.14 in 10.0 mi South 12.7 mph - N/A   Clear
11:58 AM 43.5 °F 37.9 °F 20.1 °F 39% 30.10 in 10.0 mi South 10.4 mph - N/A   Clear
12:58 PM 47.1 °F - 21.4 °F 36% 30.08 in 10.0 mi SSE 15.0 mph - N/A   Clear
1:58 PM 50.2 °F - 23.0 °F 35% 30.03 in 10.0 mi SSE 12.7 mph - N/A   Clear
2:58 PM 53.2 °F - 24.4 °F 33% 29.99 in 10.0 mi SE 15.0 mph - N/A   Clear
3:58 PM 54.1 °F - 25.9 °F 34% 29.96 in 10.0 mi SE 16.1 mph 21.9 mph N/A   Clear
4:58 PM 52.9 °F - 26.2 °F 36% 29.96 in 10.0 mi SE 16.1 mph - N/A   Clear
5:58 PM 51.1 °F - 26.6 °F 39% 29.96 in 10.0 mi SE 12.7 mph - N/A   Clear
6:58 PM 45.3 °F 40.1 °F 27.0 °F 49% 29.96 in 10.0 mi ESE 10.4 mph - N/A   Clear
7:58 PM 41.9 °F 35.9 °F 27.9 °F 58% 29.97 in 10.0 mi ESE 10.4 mph - N/A   Clear
8:58 PM 41.7 °F 34.4 °F 28.2 °F 59% 29.96 in 10.0 mi ESE 13.8 mph - N/A   Clear
9:58 PM 40.8 °F 34.5 °F 28.0 °F 60% 29.96 in 10.0 mi ESE 10.4 mph - N/A   Clear
10:58 PM 40.1 °F 33.6 °F 27.0 °F 59% 29.97 in 10.0 mi SE 10.4 mph - N/A   Clear
11:58 PM 38.7 °F 30.9 °F 27.1 °F 63% 29.96 in 10.0 mi ESE 12.7 mph - N/A   Clear